Total_Precipitation_Accumulation
1.68 1.72 1.79 1.76 1.75 1.79 1.73 1.67 1.73 1.89 1.92 1.88 1.85 1.85 1.86 1.83 1.88 1.91 1.70 1.84 2.01 2.06 2.08 2.23 2.28 2.41 2.46 2.47 2.59 2.73 3.00 3.23 2.91 2.36 2.25 2.23 2.35 2.32 2.23 2.00 1.78 1.68 1.51
1.72 1.85 1.97 2.01 2.04 2.00 1.80 1.69 1.75 1.85 1.90 1.93 1.92 1.86 1.76 1.79 1.98 2.04 1.91 1.99 2.10 2.08 2.11 2.25 2.15 2.33 2.50 2.45 2.56 2.58 2.70 3.04 2.91 2.63 2.59 2.53 2.50 2.40 2.40 2.23 1.91 1.73 1.66
1.93 2.13 2.35 2.45 2.31 2.13 2.00 1.89 1.92 1.92 1.96 2.04 2.06 2.06 2.04 2.07 2.09 2.16 2.24 2.20 2.13 2.06 2.11 2.11 2.08 2.27 2.27 2.37 2.49 2.48 2.48 2.65 2.83 2.76 2.71 2.78 2.73 2.62 2.57 2.39 2.20 2.13 1.81
1.68 1.99 2.23 2.38 2.24 2.14 2.12 1.97 1.90 1.91 2.01 2.12 2.13 2.25 2.42 2.47 2.46 2.42 2.32 2.25 2.20 2.16 2.12 2.07 2.02 2.04 2.07 2.17 2.28 2.39 2.48 2.62 2.77 2.80 2.84 2.96 2.92 2.97 2.97 2.75 2.60 2.51 2.18
1.52 1.66 1.91 2.19 2.04 1.79 1.74 1.69 1.63 1.72 1.86 2.17 2.32 2.41 2.68 2.81 2.62 2.63 2.56 2.44 2.44 2.26 2.13 2.03 1.89 1.91 1.97 2.00 1.95 2.08 2.25 2.41 2.45 2.54 2.66 2.88 2.94 3.05 3.03 2.88 2.74 2.74 2.56
1.44 1.57 1.76 1.88 1.72 1.55 1.43 1.45 1.48 1.57 1.75 1.94 2.08 2.20 2.25 2.09 2.24 2.27 2.25 2.30 2.33 2.22 2.14 2.07 1.92 1.83 1.80 1.75 1.65 1.68 1.79 1.93 2.13 2.37 2.46 2.67 2.88 3.04 3.25 3.29 3.12 2.93 2.77
1.44 1.48 1.62 1.72 1.70 1.59 1.42 1.43 1.50 1.60 1.73 1.81 1.85 1.90 1.87 1.92 1.95 1.74 1.68 1.67 1.85 1.97 2.03 2.02 1.78 1.63 1.72 1.63 1.65 1.62 1.62 1.75 1.87 2.12 2.31 2.41 2.67 2.88 3.14 3.27 3.27 3.16 2.99
1.50 1.55 1.70 1.86 1.87 1.80 1.74 1.70 1.79 1.84 1.81 1.80 1.84 1.88 1.94 1.92 1.82 1.59 1.57 1.53 1.67 1.78 1.85 1.89 1.86 1.79 1.78 1.82 1.73 1.62 1.53 1.60 1.70 1.67 1.73 1.92 2.21 2.60 2.78 2.83 3.01 3.06 2.94
1.69 1.74 1.81 1.97 2.02 2.05 2.12 2.17 2.21 2.19 2.05 2.00 2.08 2.10 2.06 1.96 1.83 1.63 1.63 1.58 1.69 1.72 1.72 1.73 1.74 1.70 1.79 1.67 1.58 1.56 1.55 1.58 1.56 1.53 1.48 1.53 1.69 1.93 2.28 2.45 2.57 2.54 2.44
1.87 2.01 2.03 2.17 2.29 2.26 2.35 2.48 2.60 2.61 2.50 2.52 2.38 2.23 2.10 1.98 1.94 1.65 1.57 1.50 1.59 1.67 1.74 1.69 1.62 1.50 1.50 1.45 1.43 1.54 1.53 1.54 1.59 1.52 1.41 1.34 1.30 1.46 1.80 2.00 2.11 2.17 2.07
2.08 2.14 2.16 2.31 2.46 2.60 2.80 2.97 2.97 2.90 2.90 2.81 2.54 2.40 2.36 2.29 2.09 1.64 1.49 1.40 1.47 1.64 1.69 1.67 1.58 1.53 1.35 1.31 1.29 1.32 1.35 1.35 1.44 1.49 1.45 1.42 1.43 1.45 1.53 1.71 1.94 2.09 2.06
2.15 2.26 2.41 2.50 2.52 2.64 3.00 3.12 3.10 3.05 2.91 2.71 2.55 2.33 2.21 2.14 1.95 1.69 1.50 1.49 1.59 1.66 1.67 1.62 1.61 1.52 1.31 1.23 1.16 1.15 1.18 1.13 1.16 1.28 1.28 1.25 1.27 1.30 1.38 1.55 1.77 1.94 2.02
2.12 2.29 2.45 2.59 2.79 2.99 3.14 3.11 3.03 2.98 2.85 2.69 2.53 2.32 2.26 2.32 2.23 1.91 1.69 1.66 1.67 1.58 1.56 1.60 1.54 1.42 1.22 1.06 1.04 1.03 0.96 0.93 1.03 1.14 1.15 1.10 1.07 1.13 1.23 1.40 1.58 1.76 1.79
2.01 2.14 2.26 2.34 2.41 2.56 2.80 2.76 2.61 2.57 2.61 2.60 2.55 2.44 2.39 2.36 2.30 2.03 1.78 1.75 1.71 1.64 1.57 1.54 1.41 1.33 1.16 1.05 1.05 0.97 0.88 0.95 1.05 1.08 1.12 1.12 1.10 1.13 1.17 1.25 1.38 1.52 1.61
1.81 1.88 1.91 1.95 2.03 2.12 2.22 2.32 2.30 2.29 2.29 2.31 2.30 2.27 2.15 2.07 2.14 2.03 1.84 1.82 1.87 1.89 1.82 1.69 1.53 1.41 1.26 1.14 1.12 1.13 1.15 1.20 1.18 1.16 1.22 1.27 1.25 1.18 1.15 1.21 1.37 1.44 1.41
1.82 1.77 1.74 1.76 1.81 1.83 1.91 1.96 1.99 1.89 1.80 1.70 1.64 1.61 1.56 1.62 1.75 1.67 1.58 1.65 1.74 1.80 1.68 1.55 1.49 1.40 1.31 1.30 1.33 1.35 1.34 1.34 1.31 1.33 1.35 1.39 1.38 1.29 1.22 1.24 1.37 1.45 1.40
2.00 1.89 1.79 1.70 1.69 1.73 1.75 1.83 1.85 1.76 1.60 1.44 1.33 1.27 1.23 1.29 1.38 1.38 1.40 1.48 1.61 1.69 1.57 1.55 1.52 1.50 1.42 1.39 1.43 1.42 1.35 1.34 1.39 1.42 1.42 1.43 1.50 1.53 1.51 1.45 1.45 1.55 1.57
2.09 1.98 1.82 1.70 1.65 1.64 1.66 1.70 1.80 1.88 1.78 1.59 1.37 1.18 1.08 1.03 1.07 1.17 1.30 1.41 1.48 1.49 1.45 1.51 1.50 1.52 1.52 1.50 1.47 1.46 1.44 1.46 1.46 1.47 1.53 1.58 1.67 1.72 1.75 1.68 1.62 1.62 1.65
1.89 1.80 1.66 1.62 1.63 1.63 1.68 1.70 1.68 1.72 1.68 1.61 1.46 1.26 1.14 1.04 1.04 1.12 1.15 1.16 1.30 1.37 1.39 1.39 1.39 1.39 1.42 1.45 1.43 1.41 1.41 1.44 1.48 1.55 1.57 1.60 1.67 1.68 1.65 1.61 1.63 1.67 1.71
1.88 1.84 1.67 1.61 1.70 1.74 1.73 1.73 1.70 1.77 1.75 1.68 1.51 1.30 1.19 1.08 1.01 1.06 1.08 1.18 1.34 1.38 1.38 1.35 1.37 1.37 1.40 1.43 1.46 1.46 1.46 1.47 1.53 1.63 1.64 1.64 1.68 1.67 1.61 1.61 1.68 1.72 1.69
1.86 1.81 1.69 1.60 1.64 1.76 1.79 1.76 1.71 1.73 1.70 1.70 1.57 1.39 1.28 1.12 1.11 1.16 1.23 1.33 1.44 1.42 1.41 1.39 1.38 1.32 1.32 1.36 1.39 1.42 1.45 1.50 1.51 1.58 1.64 1.68 1.71 1.69 1.66 1.70 1.77 1.83 1.84
1.78 1.72 1.58 1.43 1.45 1.55 1.61 1.65 1.68 1.64 1.66 1.68 1.63 1.46 1.35 1.14 1.16 1.23 1.28 1.36 1.40 1.41 1.39 1.37 1.31 1.21 1.20 1.24 1.31 1.41 1.46 1.45 1.49 1.59 1.64 1.66 1.72 1.71 1.75 1.80 1.84 1.89 1.96
1.63 1.56 1.42 1.25 1.25 1.40 1.46 1.54 1.59 1.56 1.54 1.53 1.47 1.39 1.30 1.22 1.20 1.22 1.26 1.29 1.32 1.35 1.32 1.28 1.23 1.20 1.23 1.29 1.35 1.42 1.48 1.49 1.45 1.47 1.54 1.59 1.67 1.71 1.77 1.80 1.81 1.90 1.95
1.52 1.47 1.42 1.25 1.22 1.36 1.46 1.55 1.53 1.49 1.49 1.48 1.39 1.37 1.31 1.32 1.30 1.24 1.23 1.26 1.29 1.27 1.25 1.24 1.20 1.15 1.20 1.28 1.34 1.35 1.37 1.39 1.39 1.41 1.46 1.55 1.61 1.67 1.74 1.76 1.76 1.79 1.85
1.46 1.46 1.50 1.38 1.32 1.35 1.41 1.46 1.43 1.38 1.37 1.35 1.36 1.40 1.41 1.34 1.33 1.35 1.35 1.36 1.33 1.27 1.21 1.18 1.22 1.21 1.19 1.20 1.21 1.24 1.28 1.18 1.17 1.23 1.26 1.36 1.42 1.52 1.62 1.64 1.67 1.72 1.76
1.41 1.43 1.52 1.47 1.40 1.45 1.53 1.55 1.54 1.49 1.44 1.37 1.36 1.38 1.43 1.45 1.42 1.42 1.43 1.44 1.43 1.39 1.32 1.27 1.23 1.19 1.18 1.14 1.09 1.11 1.07 0.96 0.97 1.09 1.13 1.18 1.28 1.39 1.42 1.42 1.41 1.48 1.56